map of FLN home
Great Circle Mapper logo
FLN - Airport
Location
City:  Florianópolis, Santa Catarina, Brazil
Name:Hercílio Luz International Airport
ICAO / IATA:SBFL / FLN

Details
Type:Airport (Aerodrome, Airfield)
Use:Public/Civil, Military, International (customs port of entry)
Latitude:27°40'14"S (-27.670488)
Longitude:48°32'50"W (-48.547180)
Datum:WGS 1984
Elevation:20 ft (6 m)
Runways:2
Longest:7546 × 148 ft (2300 × 45 m), paved

Time
Time Zone:UTC-3 (DST-2)
Local Time:

Weather
METAR:SBFL 302100Z 34007KT 9999 SCT006 20/18 Q1012
TAF:SBFL 302100Z 0100/0124 31005KT 8000 SCT008 BKN030 TN18/0109Z TX24 /0118Z
TEMPO 0102/0112 2000 RA BR BKN005 OVC015
BECMG 0112/0114 9999 SCT035
RMK PCD

Related Locations
Nearby:
Farthest:KKX: 12339 mi / 19857 km
Kikaiga Shima, Kikai-Shima Island, JP

Find:

   beyond  
but within

Other Information
Maps:
NOTAMs:
Links:
Sources:

  
flag of Brazil
flag of Santa Catarina
  

Sectional Chart

Flight Planning
at skyvector.com

Satellite Image

Google Maps Satellite View

 

Copyright © 2004-2014 Karl L. Swartz. All rights reserved.
The Great Circle Mapper name and logo are trademarks of the Great Circle Mapper.
All other trademarks mentioned herein belong to their respective owners.
Please see credits for attibutions and further copyright information.

  Follow gcmap on Facebook Follow gcmap on Twitter

hCard Microformat

Geo Microformat